User: anonymous   Login
Location: Domont
(49.0278°N, 2.3264°E)
Time: 09:49:08
(UTC+00:00)
Language:

ALOS 2 - Orbit

View from above orbital plane
View from above orbital plane
View from above satellite
View from above satellite

Ground track
Ground track

The orbit data is extracted from the following two-line orbital elements,

1 39766U 14029A   22333.90246769  .00000265  00000-0  42305-4 0  9994
2 39766  97.9232  68.6626 0001318  81.9603 278.1731 14.79473293460096
Epoch (UTC): 29 November 2022 21:39:33
Eccentricity: 0.0001318
inclination: 97.9232°
perigee height: 630 km
apogee height: 632 km
right ascension of ascending node: 68.6626°
argument of perigee: 81.9603°
revolutions per day: 14.79473293
mean anomaly at epoch: 278.1731°
orbit number at epoch: 46009

The dashed part of the orbit path shows where the satellite is in the earth's shadow,  

DLR